| time (UTC) | temp F | wind direction | speed MPH | gust MPH | rain 1hr in | rain 24hr in | rain mn in | humidity % | barometer mb |
| 20260831200012 | 86 | 228 | 3.0 | 9.0 | 0.00 | 0.00 | 0.00 | 70 | 1019.0 |
| 20260831194518 | 86 | 249 | 2.0 | 6.0 | 0.00 | 0.00 | 0.00 | 71 | 1019.2 |
| 20260831193014 | 85 | 300 | 1.0 | 4.0 | 0.00 | 0.00 | 0.00 | 74 | 1019.4 |
| 20260831191505 | 84 | 236 | 3.0 | 9.0 | 0.00 | 0.00 | 0.00 | 75 | 1019.5 |
| 20260831190007 | 84 | 232 | 3.0 | 6.0 | 0.00 | 0.00 | 0.00 | 72 | 1019.5 |
| 20260831184513 | 84 | 221 | 4.0 | 9.0 | 0.00 | 0.00 | 0.00 | 71 | 1019.6 |
| 20260831183006 | 86 | 227 | 4.0 | 11.0 | 0.00 | 0.00 | 0.00 | 70 | 1019.6 |
| 20260831181504 | 87 | 230 | 3.0 | 9.0 | 0.00 | 0.00 | 0.00 | 75 | 1019.8 |
| 20260831180003 | 85 | 235 | 4.0 | 12.0 | 0.00 | 0.00 | 0.00 | 71 | 1020.0 |
| 20260831174503 | 86 | 261 | 4.0 | 9.0 | 0.00 | 0.00 | 0.00 | 73 | 1020.1 |
| 20260831173004 | 85 | 279 | 3.0 | 12.0 | 0.00 | 0.00 | 0.00 | 73 | 1020.1 |
| 20260831171512 | 86 | 200 | 3.0 | 10.0 | 0.00 | 0.00 | 0.00 | 70 | 1020.1 |
| 20260831170006 | 85 | 216 | 5.0 | 11.0 | 0.00 | 0.00 | 0.00 | 70 | 1020.2 |
| 20260831164503 | 85 | 232 | 5.0 | 11.0 | 0.00 | 0.00 | 0.00 | 70 | 1020.3 |
| 20260831163004 | 85 | 250 | 4.0 | 9.0 | 0.00 | 0.00 | 0.00 | 70 | 1020.4 |
| 20260831161504 | 84 | 261 | 4.0 | 10.0 | 0.00 | 0.00 | 0.00 | 70 | 1020.4 |
| 20260831160006 | 84 | 220 | 4.0 | 10.0 | 0.00 | 0.00 | 0.00 | 71 | 1020.4 |
| 20260831154538 | 84 | 240 | 3.0 | 7.0 | 0.00 | 0.00 | 0.00 | 72 | 1020.3 |
| 20260831153012 | 84 | 232 | 5.0 | 8.0 | 0.00 | 0.00 | 0.00 | 73 | 1020.1 |
| 20260831151507 | 82 | 220 | 4.0 | 9.0 | 0.00 | 0.00 | 0.00 | 74 | 1020.1 |
| 20260831150007 | 81 | 231 | 3.0 | 6.0 | 0.00 | 0.00 | 0.00 | 76 | 1020.0 |
| 20260831144505 | 80 | 245 | 3.0 | 7.0 | 0.00 | 0.00 | 0.00 | 77 | 1019.9 |
| 20260831143004 | 81 | 242 | 3.0 | 9.0 | 0.00 | 0.00 | 0.00 | 76 | 1019.8 |
| 20260831141517 | 80 | 241 | 5.0 | 9.0 | 0.00 | 0.00 | 0.00 | 79 | 1019.7 |
| 20260831140016 | 78 | 201 | 5.0 | 9.0 | 0.00 | 0.00 | 0.00 | 80 | 1019.7 |
| 20260831134508 | 77 | 232 | 4.0 | 7.0 | 0.00 | 0.00 | 0.00 | 83 | 1019.9 |
| 20260831133022 | 75 | 240 | 4.0 | 8.0 | 0.00 | 0.00 | 0.00 | 85 | 1019.9 |
| 20260831131506 | 74 | 227 | 3.0 | 5.0 | 0.00 | 0.00 | 0.00 | 85 | 1020.0 |
| 20260831130004 | 74 | 217 | 3.0 | 5.0 | 0.00 | 0.00 | 0.00 | 86 | 1020.0 |
| 20260831124516 | 73 | 221 | 2.0 | 4.0 | 0.00 | 0.00 | 0.00 | 87 | 1019.8 |
| 20260831123009 | 73 | 210 | 2.0 | 4.0 | 0.00 | 0.00 | 0.00 | 88 | 1019.8 |
| 20260831121518 | 72 | 216 | 1.0 | 3.0 | 0.00 | 0.00 | 0.00 | 88 | 1019.6 |
| 20260831120016 | 71 | 206 | 2.0 | 3.0 | 0.00 | 0.00 | 0.00 | 88 | 1019.6 |
| 20260831114505 | 71 | 212 | 2.0 | 3.0 | 0.00 | 0.00 | 0.00 | 87 | 1019.6 |
| 20260831113011 | 71 | 216 | 1.0 | 3.0 | 0.00 | 0.00 | 0.00 | 87 | 1019.4 |
| 20260831111507 | 71 | 213 | 2.0 | 3.0 | 0.00 | 0.00 | 0.00 | 88 | 1019.4 |
| 20260831110003 | 70 | 207 | 2.0 | 3.0 | 0.00 | 0.00 | 0.00 | 89 | 1019.2 |
| 20260831104533 | 69 | 191 | 1.0 | 2.0 | 0.00 | 0.00 | 0.00 | 90 | 1019.0 |
| 20260831103004 | 69 | 191 | 1.0 | 1.0 | 0.00 | 0.00 | 0.00 | 91 | 1018.9 |
| 20260831101516 | 70 | 191 | 1.0 | 1.0 | 0.00 | 0.00 | 0.00 | 90 | 1018.8 |
| 20260831100015 | 70 | 191 | 0.0 | 1.0 | 0.00 | 0.00 | 0.00 | 90 | 1019.0 |
| 20260831094512 | 70 | 191 | 1.0 | 1.0 | 0.00 | 0.00 | 0.00 | 90 | 1018.9 |
| 20260831093006 | 70 | 191 | 0.0 | 2.0 | 0.00 | 0.00 | 0.00 | 90 | 1019.1 |
| 20260831091530 | 70 | 191 | 0.0 | 2.0 | 0.00 | 0.00 | 0.00 | 91 | 1019.0 |
| 20260831090018 | 69 | 191 | 1.0 | 1.0 | 0.00 | 0.00 | 0.00 | 91 | 1018.9 |
| 20260831084524 | 69 | 191 | 1.0 | 2.0 | 0.00 | 0.00 | 0.00 | 91 | 1018.7 |
| 20260831083035 | 69 | 191 | 2.0 | 2.0 | 0.00 | 0.00 | 0.00 | 91 | 1018.5 |
| 20260831081508 | 69 | 191 | 1.0 | 2.0 | 0.00 | 0.00 | 0.00 | 92 | 1018.5 |
| 20260831080017 | 69 | 191 | 1.0 | 2.0 | 0.00 | 0.00 | 0.00 | 92 | 1018.5 |
| 20260831074509 | 69 | 191 | 1.0 | 1.0 | 0.00 | 0.00 | 0.00 | 92 | 1018.5 |
| 20260831073031 | 69 | 167 | 0.0 | 3.0 | 0.00 | 0.00 | 0.00 | 92 | 1018.6 |
| 20260831071530 | 69 | 167 | 0.0 | 3.0 | 0.00 | 0.00 | 0.00 | 92 | 1018.6 |
| 20260831070031 | 69 | 167 | 0.0 | 3.0 | 0.00 | 0.00 | 0.00 | 93 | 1018.7 |
| 20260831064514 | 68 | 204 | 1.0 | 1.0 | 0.00 | 0.00 | 0.00 | 93 | 1018.8 |
| 20260831063019 | 68 | 188 | 1.0 | 2.0 | 0.00 | 0.00 | 0.00 | 92 | 1018.9 |
| 20260831061514 | 69 | 155 | 1.0 | 1.0 | 0.00 | 0.00 | 0.00 | 92 | 1019.0 |
| 20260831060011 | 69 | 155 | 0.0 | 2.0 | 0.00 | 0.00 | 0.00 | 91 | 1019.2 |
| 20260831054515 | 69 | 155 | 0.0 | 2.0 | 0.00 | 0.00 | 0.00 | 91 | 1019.3 |
| 20260831053019 | 69 | 155 | 0.0 | 0.0 | 0.00 | 0.00 | 0.00 | 91 | 1019.4 |
| 20260831051533 | 69 | 155 | 0.0 | 2.0 | 0.00 | 0.00 | 0.00 | 91 | 1019.6 |
| 20260831050042 | 69 | 155 | 0.0 | 2.0 | 0.00 | 0.00 | 0.00 | 91 | 1019.6 |
| 20260831044520 | 70 | 155 | 0.0 | 2.0 | 0.00 | 0.00 | 0.00 | 90 | 1019.4 |
| 20260831043014 | 70 | 155 | 0.0 | 2.0 | 0.00 | 0.00 | 0.00 | 90 | 1019.4 |
| 20260831041531 | 70 | 155 | 0.0 | 2.0 | 0.00 | 0.00 | 0.00 | 90 | 1019.5 |
| 20260831040031 | 70 | 155 | 1.0 | 2.0 | 0.00 | 0.00 | 0.00 | 91 | 1019.5 |
| 20260831034533 | 70 | 155 | 0.0 | 0.0 | 0.00 | 0.00 | 0.00 | 90 | 1019.5 |
| 20260831033010 | 70 | 155 | 0.0 | 2.0 | 0.00 | 0.00 | 0.00 | 90 | 1019.4 |
| 20260831031504 | 70 | 43 | 0.0 | 2.0 | 0.00 | 0.00 | 0.00 | 90 | 1019.5 |
| 20260831030017 | 71 | 43 | 0.0 | 2.0 | 0.00 | 0.00 | 0.00 | 89 | 1019.6 |
| 20260831024512 | 71 | 43 | 0.0 | 2.0 | 0.00 | 0.00 | 0.00 | 89 | 1019.7 |
| 20260831023012 | 71 | 43 | 0.0 | 2.0 | 0.00 | 0.00 | 0.00 | 89 | 1019.6 |
| 20260831021512 | 71 | 43 | 0.0 | 2.0 | 0.00 | 0.00 | 0.00 | 88 | 1019.7 |
| 20260831020005 | 71 | 43 | 0.0 | 2.0 | 0.00 | 0.00 | 0.00 | 88 | 1019.8 |
| 20260831014508 | 71 | 43 | 0.0 | 2.0 | 0.00 | 0.00 | 0.00 | 89 | 1019.6 |
| 20260831013009 | 71 | 43 | 0.0 | 2.0 | 0.00 | 0.00 | 0.00 | 88 | 1019.7 |
| 20260831011524 | 72 | 43 | 1.0 | 2.0 | 0.00 | 0.00 | 0.00 | 88 | 1019.4 |
| 20260831010029 | 0 | 0.0 | 0.0 | 0.00 | 0.00 | 0.00 | 1019.2 | ||
| 20260831004515 | 0 | 0.0 | 0.0 | 0.00 | 0.00 | 0.00 | 1019.1 | ||
| 20260831003013 | 0 | 0.0 | 0.0 | 0.00 | 0.00 | 0.00 | 1019.0 | ||
| 20260831001508 | 74 | 325 | 0.0 | 2.0 | 0.00 | 0.00 | 0.00 | 88 | 1018.8 |
| 20260831000006 | 75 | 264 | 0.0 | 2.0 | 0.00 | 0.00 | 0.00 | 86 | 1018.8 |
| 20260830234506 | 76 | 264 | 0.0 | 2.0 | 0.00 | 0.00 | 0.00 | 87 | 1018.7 |
| 20260830233029 | 76 | 264 | 0.0 | 0.0 | 0.00 | 0.00 | 0.00 | 85 | 1018.4 |
| 20260830231510 | 78 | 264 | 0.0 | 2.0 | 0.00 | 0.00 | 0.00 | 79 | 1018.4 |
| 20260830230030 | 80 | 238 | 0.0 | 2.0 | 0.00 | 0.00 | 0.00 | 72 | 1018.4 |
| 20260830224526 | 82 | 229 | 2.0 | 5.0 | 0.00 | 0.00 | 0.00 | 69 | 1018.0 |
| 20260830223018 | 82 | 210 | 3.0 | 8.0 | 0.00 | 0.00 | 0.00 | 66 | 1017.8 |
| 20260830221507 | 83 | 202 | 3.0 | 8.0 | 0.00 | 0.00 | 0.00 | 66 | 1017.9 |
| 20260830220026 | 83 | 247 | 2.0 | 6.0 | 0.00 | 0.00 | 0.00 | 68 | 1018.1 |
| 20260830214519 | 82 | 213 | 2.0 | 7.0 | 0.00 | 0.00 | 0.00 | 67 | 1018.1 |
| 20260830213025 | 82 | 194 | 2.0 | 8.0 | 0.00 | 0.00 | 0.00 | 67 | 1018.0 |
| 20260830211508 | 81 | 205 | 2.0 | 6.0 | 0.00 | 0.00 | 0.00 | 67 | 1018.0 |
| 20260830210013 | 81 | 213 | 3.0 | 11.0 | 0.00 | 0.00 | 0.00 | 65 | 1017.9 |
| 20260830204512 | 82 | 207 | 5.0 | 10.0 | 0.00 | 0.00 | 0.00 | 65 | 1017.5 |
| 20260830203010 | 82 | 193 | 2.0 | 5.0 | 0.00 | 0.00 | 0.00 | 63 | 1018.2 |
| 20260830201601 | 84 | 350 | 0.0 | 4.0 | 0.00 | 0.00 | 0.00 | 63 | 1018.9 |